Tracking 35237 objects as of 5-Sep-2026
HD Live streaming from Space Station
objects crossing your sky now

COSMOS 719 DEB


COSMOS 719 DEB is no longer on orbit


NORAD ID: 7701
Int'l Code: 1975-018D
Launch date: March 12, 1975
Source: Commonwealth of Independent States (former USSR) (CIS)
Launch site: TYURATAM MISSILE AND SPACE COMPLEX (TTMTR)
Decay date: 1975-03-26

Note: This is SATELLITE DEBRIS
Your satellite tracking list
Your tracking list is empty




NASA's NSSDC Master Catalog

Two Line Element Set (TLE):
1 07701U 75018  D 75083.95840978  .05238169 +45169-1 +14048-2 0  9998
2 07701 064.9802 292.5971 0069095 056.9253 303.8486 16.22774499002038
Source of the keplerian elements: AFSPC